KD5NDU-15 Weather Reports


Display with metric or nautical units.
time (UTC)temp
F
wind
direction
speed
MPH
gust
MPH
rain 1hr
in
rain 24hr
in
rain mn
in
humidity
%
barometer
mb
20260904160133 95 192 2.0 7.0 0.00 0.00 0.00 64 1016.7
20260904155633 96 230 1.0 3.0 0.00 0.00 0.00 62 1016.6
20260904155133 95 1 1.0 2.0 0.00 0.00 0.00 65 1016.6
20260904154633 94 245 2.0 4.0 0.00 0.00 0.00 66 1016.6
20260904154133 94 293 1.0 3.0 0.00 0.00 0.00 66 1016.6
20260904153633 94 214 1.0 3.0 0.00 0.00 0.00 67 1016.8
20260904153133 93 133 1.0 3.0 0.00 0.00 0.00 67 1016.7
20260904152633 93 215 2.0 4.0 0.00 0.00 0.00 67 1016.8
20260904152133 93 150 1.0 4.0 0.00 0.00 0.00 68 1016.7
20260904151633 92 198 1.0 3.0 0.00 0.00 0.00 68 1016.8
20260904151133 92 262 1.0 3.0 0.00 0.00 0.00 70 1016.8
20260904150633 92 156 1.0 2.0 0.00 0.00 0.00 69 1016.6
20260904150133 92 193 2.0 3.0 0.00 0.00 0.00 71 1016.6
20260904145633 91 143 1.0 3.0 0.00 0.00 0.00 71 1016.8
20260904145133 90 231 1.0 1.0 0.00 0.00 0.00 73 1016.8
20260904144633 89 229 2.0 3.0 0.00 0.00 0.00 74 1016.7
20260904144133 89 229 3.0 4.0 0.00 0.00 0.00 74 1016.6
20260904143633 89 229 2.0 7.0 0.00 0.00 0.00 73 1016.5
20260904143133 89 221 1.0 6.0 0.00 0.00 0.00 74 1016.5
20260904142633 88 215 2.0 4.0 0.00 0.00 0.00 74 1016.5
20260904142133 88 210 1.0 3.0 0.00 0.00 0.00 75 1016.4
20260904141633 87 210 2.0 3.0 0.00 0.00 0.00 76 1016.4
20260904141133 86 205 2.0 4.0 0.00 0.00 0.00 77 1016.5
20260904140633 86 213 2.0 5.0 0.00 0.00 0.00 77 1016.5
20260904140133 85 194 2.0 3.0 0.00 0.00 0.00 80 1016.5
20260904135633 85 193 1.0 4.0 0.00 0.00 0.00 80 1016.4
20260904135133 84 182 1.0 2.0 0.00 0.00 0.00 81 1016.3
20260904134633 84 182 1.0 3.0 0.00 0.00 0.00 81 1016.3
20260904134133 84 166 0.0 2.0 0.00 0.00 0.00 82 1016.4
20260904133633 83 162 0.0 0.0 0.00 0.00 0.00 83 1016.4
20260904133133 82 162 0.0 1.0 0.00 0.00 0.00 85 1016.3
20260904132633 82 162 0.0 1.0 0.00 0.00 0.00 85 1016.3
20260904132133 81 162 0.0 2.0 0.00 0.00 0.00 88 1016.2
20260904131633 80 162 0.0 0.0 0.00 0.00 0.00 91 1016.2
20260904131133 78 162 0.0 0.0 0.00 0.00 0.00 93 1016.3
20260904130633 77 162 0.0 0.0 0.00 0.00 0.00 94 1016.2
20260904130133 77 162 0.0 0.0 0.00 0.00 0.00 94 1016.4
20260904125633 76 162 0.0 0.0 0.00 0.00 0.00 94 1016.3
20260904125133 76 162 0.0 0.0 0.00 0.00 0.00 94 1016.2
20260904124633 76 162 0.0 2.0 0.00 0.00 0.00 94 1016.0
20260904124133 76 162 0.0 0.0 0.00 0.00 0.00 94 1015.9
20260904123633 75 162 0.0 1.0 0.00 0.00 0.00 94 1015.8
20260904123133 75 162 0.0 0.0 0.00 0.00 0.00 94 1015.7
20260904122633 75 162 0.0 1.0 0.00 0.00 0.00 94 1015.7
20260904122133 75 162 0.0 0.0 0.00 0.00 0.00 94 1015.7
20260904121633 75 162 0.0 0.0 0.00 0.00 0.00 94 1015.7
20260904121133 75 162 0.0 0.0 0.00 0.00 0.00 94 1015.7
20260904120633 74 162 0.0 0.0 0.00 0.00 0.00 94 1015.6
20260904120133 74 162 0.0 0.0 0.00 0.00 0.00 94 1015.7
20260904115633 74 162 0.0 0.0 0.00 0.00 0.00 94 1015.5
20260904115133 74 162 0.0 0.0 0.00 0.00 0.00 94 1015.6
20260904114633 74 162 0.0 0.0 0.00 0.00 0.00 94 1015.5
20260904114133 74 162 0.0 1.0 0.00 0.00 0.00 94 1015.5
20260904113633 74 162 0.0 0.0 0.00 0.00 0.00 94 1015.4
20260904113133 74 162 0.0 0.0 0.00 0.00 0.00 94 1015.4
20260904112633 74 162 0.0 2.0 0.00 0.00 0.00 94 1015.3
20260904112133 75 162 0.0 1.0 0.00 0.00 0.00 93 1015.3
20260904111633 75 162 0.0 0.0 0.00 0.00 0.00 93 1015.3
20260904111133 75 162 0.0 0.0 0.00 0.00 0.00 93 1015.2
20260904110633 75 162 0.0 0.0 0.00 0.00 0.00 93 1015.2
20260904110133 75 162 0.0 1.0 0.00 0.00 0.00 93 1015.3
20260904105633 75 162 0.0 1.0 0.00 0.00 0.00 93 1015.2
20260904105133 75 162 1.0 2.0 0.00 0.00 0.00 93 1015.1
20260904104633 75 163 1.0 2.0 0.00 0.00 0.00 93 1015.2
20260904104133 75 159 1.0 3.0 0.00 0.00 0.00 93 1015.1
20260904103633 75 159 1.0 2.0 0.00 0.00 0.00 93 1015.0
20260904103133 75 159 0.0 2.0 0.00 0.00 0.00 93 1015.1
20260904102633 75 159 0.0 2.0 0.00 0.00 0.00 94 1015.1
20260904102133 75 158 0.0 1.0 0.00 0.00 0.00 93 1015.2
20260904101633 75 158 0.0 1.0 0.00 0.00 0.00 93 1015.1
20260904101133 75 158 0.0 0.0 0.00 0.00 0.00 93 1015.1
20260904100633 75 158 1.0 2.0 0.00 0.00 0.00 93 1015.1
20260904100133 75 151 1.0 2.0 0.00 0.00 0.00 93 1015.1
20260904095633 75 150 1.0 1.0 0.00 0.00 0.00 93 1015.0
20260904095133 75 151 1.0 2.0 0.00 0.00 0.00 93 1014.9
20260904094633 75 161 1.0 3.0 0.00 0.00 0.00 94 1015.0
20260904094133 74 151 0.0 3.0 0.00 0.00 0.00 94 1014.9
20260904093633 74 143 0.0 1.0 0.00 0.00 0.00 93 1014.8
20260904093133 74 143 0.0 2.0 0.00 0.00 0.00 94 1014.9
20260904092633 74 79 0.0 2.0 0.00 0.00 0.00 94 1014.9
20260904092133 74 84 0.0 3.0 0.00 0.00 0.00 94 1014.9
20260904091633 74 155 0.0 0.0 0.00 0.00 0.00 94 1014.9
20260904091133 74 172 0.0 0.0 0.00 0.00 0.00 93 1014.9
20260904090633 74 172 0.0 0.0 0.00 0.00 0.00 94 1014.8
20260904090133 74 172 0.0 0.0 0.00 0.00 0.00 94 1014.7
20260904085633 74 173 0.0 0.0 0.00 0.00 0.00 94 1014.7
20260904085133 74 165 0.0 0.0 0.00 0.00 0.00 94 1014.6
20260904084633 74 165 0.0 0.0 0.00 0.00 0.00 94 1014.5
20260904084133 74 165 0.0 0.0 0.00 0.00 0.00 94 1014.6
20260904083633 74 165 0.0 0.0 0.00 0.00 0.00 94 1014.6
20260904083133 74 165 0.0 0.0 0.00 0.00 0.00 94 1014.5
20260904082633 74 165 0.0 0.0 0.00 0.00 0.00 94 1014.6
20260904082133 74 165 0.0 0.0 0.00 0.00 0.00 94 1014.4
20260904081633 74 165 0.0 0.0 0.00 0.00 0.00 94 1014.4
20260904081133 74 165 0.0 0.0 0.00 0.00 0.00 94 1014.4
20260904080633 74 165 0.0 0.0 0.00 0.00 0.00 94 1014.4
20260904080133 74 165 0.0 0.0 0.00 0.00 0.00 94 1014.3
20260904075633 74 165 0.0 0.0 0.00 0.00 0.00 93 1014.4
20260904075133 74 165 0.0 0.0 0.00 0.00 0.00 93 1014.4
20260904074633 75 165 0.0 0.0 0.00 0.00 0.00 93 1014.4
20260904074133 75 165 0.0 0.0 0.00 0.00 0.00 93 1014.3
20260904073633 75 165 0.0 0.0 0.00 0.00 0.00 93 1014.3
20260904073133 75 165 0.0 0.0 0.00 0.00 0.00 93 1014.3
20260904072633 75 165 0.0 0.0 0.00 0.00 0.00 93 1014.4
20260904072133 75 165 0.0 0.0 0.00 0.00 0.00 93 1014.4
20260904071633 75 165 0.0 0.0 0.00 0.00 0.00 93 1014.4
20260904071133 75 165 0.0 0.0 0.00 0.00 0.00 93 1014.4
20260904070633 75 165 0.0 0.0 0.00 0.00 0.00 93 1014.5
20260904070133 75 165 0.0 0.0 0.00 0.00 0.00 93 1014.5
20260904065633 75 165 0.0 0.0 0.00 0.00 0.00 93 1014.5
20260904065133 75 165 0.0 0.0 0.00 0.00 0.00 93 1014.5
20260904064633 75 165 0.0 0.0 0.00 0.00 0.00 93 1014.5
20260904064133 75 165 0.0 0.0 0.00 0.00 0.00 93 1014.6
20260904063633 75 165 0.0 0.0 0.00 0.00 0.00 93 1014.6
20260904063133 75 165 0.0 0.0 0.00 0.00 0.00 92 1014.7
20260904062633 75 165 0.0 0.0 0.00 0.00 0.00 92 1014.7
20260904062133 75 165 0.0 0.0 0.00 0.00 0.00 92 1014.6
20260904061633 76 165 0.0 0.0 0.00 0.00 0.00 92 1014.6
20260904061133 76 165 0.0 0.0 0.00 0.00 0.00 92 1014.6
20260904060633 76 165 0.0 0.0 0.00 0.00 0.00 92 1014.6
20260904060133 76 165 0.0 0.0 0.00 0.00 0.00 92 1014.7
20260904055633 76 165 0.0 0.0 0.00 0.00 0.00 91 1014.5
20260904055133 77 165 0.0 0.0 0.00 0.00 0.00 90 1014.6
20260904054633 77 165 0.0 0.0 0.00 0.00 0.00 90 1014.7
20260904054133 77 165 0.0 0.0 0.00 0.00 0.00 90 1014.8
20260904053633 77 165 0.0 0.0 0.00 0.00 0.00 90 1014.9
20260904053133 77 165 0.0 0.0 0.00 0.00 0.00 90 1014.8
20260904052633 76 165 0.0 0.0 0.00 0.00 0.00 91 1014.7
20260904052133 76 165 0.0 0.0 0.00 0.00 0.00 91 1014.8
20260904051633 77 165 0.0 0.0 0.00 0.00 0.00 91 1014.8
20260904051133 77 165 0.0 0.0 0.00 0.00 0.00 91 1014.7
20260904050633 77 165 0.0 0.0 0.00 0.00 0.00 90 1014.7
20260904050133 77 165 0.0 0.0 0.00 0.00 0.00 90 1014.7
20260904045633 77 165 0.0 0.0 0.00 0.00 0.00 89 1014.7
20260904045134 77 165 0.0 0.0 0.00 0.00 0.00 89 1014.8
20260904044634 77 165 0.0 0.0 0.00 0.00 0.00 88 1014.8
20260904044134 77 165 0.0 0.0 0.00 0.00 0.00 88 1014.9
20260904043634 78 165 0.0 0.0 0.00 0.00 0.00 88 1014.8
20260904043134 78 165 0.0 0.0 0.00 0.00 0.00 88 1014.7
20260904042634 78 165 0.0 0.0 0.00 0.00 0.00 87 1014.7
20260904042134 79 165 0.0 0.0 0.00 0.00 0.00 87 1014.7
20260904041634 79 165 0.0 0.0 0.00 0.00 0.00 87 1014.8
20260904041134 79 165 0.0 0.0 0.00 0.00 0.00 86 1014.7
20260904040634 79 165 0.0 0.0 0.00 0.00 0.00 86 1014.8
20260904040134 78 165 0.0 0.0 0.00 0.00 0.00 86 1014.8
20260904035634 78 181 0.0 0.0 0.00 0.00 0.00 87 1014.9
20260904035134 78 181 0.0 0.0 0.00 0.00 0.00 87 1014.9
20260904034634 78 181 0.0 0.0 0.00 0.00 0.00 87 1015.0
20260904034134 78 181 0.0 0.0 0.00 0.00 0.00 87 1015.0
20260904033634 79 181 0.0 0.0 0.00 0.00 0.00 86 1014.9
20260904033134 79 181 0.0 0.0 0.00 0.00 0.00 85 1014.9
20260904032634 79 181 0.0 0.0 0.00 0.00 0.00 85 1015.1
20260904032135 79 181 0.0 0.0 0.00 0.00 0.00 84 1015.0
20260904031634 80 181 0.0 0.0 0.00 0.00 0.00 84 1015.0
20260904031134 80 181 0.0 0.0 0.00 0.00 0.00 84 1015.0
20260904030634 80 181 0.0 0.0 0.00 0.00 0.00 83 1015.1
20260904030134 80 181 0.0 0.0 0.00 0.00 0.00 83 1015.1
20260904025634 80 181 0.0 0.0 0.00 0.00 0.00 83 1015.2
20260904025134 80 181 0.0 0.0 0.00 0.00 0.00 82 1015.2
20260904024634 80 181 0.0 0.0 0.00 0.00 0.00 82 1015.2
20260904024134 80 181 0.0 0.0 0.00 0.00 0.00 82 1015.1
20260904023634 81 181 0.0 0.0 0.00 0.00 0.00 82 1015.1
20260904023134 81 181 0.0 0.0 0.00 0.00 0.00 81 1015.1
20260904022634 82 181 0.0 0.0 0.00 0.00 0.00 79 1014.9
20260904022134 82 181 0.0 0.0 0.00 0.00 0.00 79 1014.8
20260904021634 82 181 0.0 0.0 0.00 0.00 0.00 79 1014.9
20260904021134 82 181 0.0 0.0 0.00 0.00 0.00 79 1015.1
20260904020634 82 181 0.0 0.0 0.00 0.00 0.00 78 1015.0
20260904020134 83 181 0.0 0.0 0.00 0.00 0.00 78 1015.0
20260904015634 83 181 0.0 0.0 0.00 0.00 0.00 77 1015.1
20260904015134 83 181 0.0 0.0 0.00 0.00 0.00 77 1015.1
20260904014634 83 181 1.0 2.0 0.00 0.00 0.00 77 1015.0
20260904014134 83 179 1.0 3.0 0.00 0.00 0.00 76 1014.9
20260904013634 83 197 1.0 2.0 0.00 0.00 0.00 77 1014.9
20260904013134 83 198 2.0 4.0 0.00 0.00 0.00 77 1014.9
20260904012634 83 208 2.0 4.0 0.00 0.00 0.00 77 1014.8
20260904012134 83 194 3.0 6.0 0.00 0.00 0.00 77 1014.7
20260904011634 84 205 2.0 5.0 0.00 0.00 0.00 76 1014.6
20260904011134 84 127 1.0 3.0 0.00 0.00 0.00 76 1014.5
20260904010634 84 138 1.0 3.0 0.00 0.00 0.00 76 1014.4
20260904010134 84 38 0.0 1.0 0.00 0.00 0.00 76 1014.5
20260904005634 84 358 1.0 2.0 0.00 0.00 0.00 76 1014.4
20260904005134 85 358 0.0 2.0 0.00 0.00 0.00 76 1014.5
20260904004634 85 353 0.0 2.0 0.00 0.00 0.00 75 1014.5
20260904004134 85 353 0.0 1.0 0.00 0.00 0.00 75 1014.4
20260904003634 86 353 0.0 0.0 0.00 0.00 0.00 74 1014.4
20260904003134 86 353 0.0 0.0 0.00 0.00 0.00 74 1014.4
20260904002634 86 353 0.0 1.0 0.00 0.00 0.00 73 1014.3
20260904002134 86 353 1.0 1.0 0.00 0.00 0.00 73 1014.2
20260904001634 86 353 1.0 2.0 0.00 0.00 0.00 72 1014.3
20260904001134 86 353 1.0 2.0 0.00 0.00 0.00 71 1014.2
20260904000634 87 353 0.0 2.0 0.00 0.00 0.00 70 1014.1
20260904000134 87 353 0.0 0.0 0.00 0.00 0.00 68 1014.1
20260903235634 88 352 0.0 0.0 0.00 0.00 0.00 68 1014.3
20260903235134 88 352 0.0 1.0 0.00 0.00 0.00 68 1014.3
20260903234634 89 352 0.0 1.0 0.00 0.00 0.00 67 1014.3
20260903234134 89 352 0.0 0.0 0.00 0.00 0.00 67 1014.3
20260903233634 89 352 1.0 1.0 0.00 0.00 0.00 65 1014.3
20260903233134 90 352 1.0 1.0 0.00 0.00 0.00 65 1014.2
20260903232634 90 352 1.0 2.0 0.00 0.00 0.00 64 1014.2
20260903232134 91 352 1.0 4.0 0.00 0.00 0.00 64 1014.4
20260903231634 91 3 1.0 3.0 0.00 0.00 0.00 64 1014.4
20260903231134 92 30 1.0 2.0 0.00 0.00 0.00 64 1014.5
20260903230634 92 17 1.0 5.0 0.00 0.00 0.00 64 1014.5
20260903230134 93 120 1.0 4.0 0.00 0.00 0.00 65 1014.6
20260903225634 93 0 1.0 2.0 0.00 0.00 0.00 65 1014.5
20260903225134 93 35 0.0 2.0 0.00 0.00 0.00 65 1014.4
20260903224634 93 3 0.0 1.0 0.00 0.00 0.00 66 1014.2
20260903224134 93 3 0.0 1.0 0.00 0.00 0.00 66 1014.1
20260903223634 92 21 2.0 3.0 0.00 0.00 0.00 67 1013.8
20260903223134 92 249 2.0 6.0 0.00 0.00 0.00 67 1013.7
20260903222634 92 246 1.0 6.0 0.00 0.00 0.00 66 1013.8
20260903222134 91 255 0.0 3.0 0.00 0.00 0.00 66 1013.7
20260903221634 91 300 0.0 1.0 0.00 0.00 0.00 66 1013.7
20260903221134 91 300 0.0 1.0 0.00 0.00 0.00 66 1013.6
20260903220634 91 300 0.0 1.0 0.00 0.00 0.00 66 1013.6
20260903220134 91 300 1.0 3.0 0.00 0.00 0.00 65 1013.8
20260903215634 92 297 2.0 6.0 0.00 0.00 0.00 64 1013.7
20260903215134 93 242 1.0 6.0 0.00 0.00 0.00 61 1013.6
20260903214634 94 195 0.0 1.0 0.00 0.00 0.00 61 1013.5
20260903214134 95 195 0.0 1.0 0.00 0.00 0.00 60 1013.5
20260903213634 95 195 0.0 0.0 0.00 0.00 0.00 59 1013.5
20260903213134 96 195 0.0 1.0 0.00 0.00 0.00 58 1013.6
20260903212634 96 194 0.0 0.0 0.00 0.00 0.00 57 1013.6
20260903212134 96 194 0.0 1.0 0.00 0.00 0.00 57 1013.6
20260903211634 97 194 0.0 2.0 0.00 0.00 0.00 54 1013.7
20260903211134 97 194 0.0 2.0 0.00 0.00 0.00 53 1013.8
20260903210634 97 194 0.0 2.0 0.00 0.00 0.00 53 1013.8
20260903210134 97 193 1.0 2.0 0.00 0.00 0.00 55 1013.8
20260903205634 97 193 1.0 3.0 0.00 0.00 0.00 52 1013.9
20260903205134 98 193 2.0 3.0 0.00 0.00 0.00 51 1013.8
20260903204634 99 200 1.0 3.0 0.00 0.00 0.00 50 1013.8
20260903204134 99 207 1.0 3.0 0.00 0.00 0.00 50 1013.7
20260903203634 99 230 0.0 2.0 0.00 0.00 0.00 51 1013.8
20260903203134 99 219 1.0 1.0 0.00 0.00 0.00 50 1013.8
20260903202634 100 219 1.0 3.0 0.00 0.00 0.00 50 1013.9
20260903202134 100 53 0.0 0.0 0.00 0.00 0.00 50 1014.0
20260903201634 100 53 1.0 2.0 0.00 0.00 0.00 50 1014.2
20260903201134 100 56 1.0 3.0 0.00 0.00 0.00 49 1014.2
20260903200634 101 77 0.0 3.0 0.00 0.00 0.00 49 1014.3
20260903200134 101 6 1.0 3.0 0.00 0.00 0.00 49 1014.3
20260903195634 100 131 2.0 3.0 0.00 0.00 0.00 51 1014.4
20260903195134 100 155 3.0 6.0 0.00 0.00 0.00 49 1014.3
20260903194634 99 162 3.0 5.0 0.00 0.00 0.00 51 1014.5
20260903194134 99 242 3.0 6.0 0.00 0.00 0.00 52 1014.4
20260903193634 98 225 4.0 5.0 0.00 0.00 0.00 53 1014.6
20260903193134 97 227 3.0 5.0 0.00 0.00 0.00 55 1014.7
20260903192634 96 251 2.0 6.0 0.00 0.00 0.00 55 1014.8
20260903192134 96 233 2.0 5.0 0.00 0.00 0.00 56 1014.8
20260903191634 96 244 3.0 5.0 0.00 0.00 0.00 56 1014.8
20260903191134 96 250 3.0 6.0 0.00 0.00 0.00 55 1015.0
20260903190634 97 226 2.0 6.0 0.00 0.00 0.00 55 1015.1
20260903190134 98 240 2.0 4.0 0.00 0.00 0.00 55 1015.1
20260903185634 98 212 2.0 6.0 0.00 0.00 0.00 54 1015.2
20260903185134 100 107 1.0 3.0 0.00 0.00 0.00 53 1015.2
20260903184634 100 101 1.0 3.0 0.00 0.00 0.00 54 1015.1
20260903184134 98 296 0.0 3.0 0.00 0.00 0.00 57 1015.5
20260903183634 97 252 0.0 2.0 0.00 0.00 0.00 58 1015.6
20260903183134 96 251 0.0 1.0 0.00 0.00 0.00 60 1015.5
20260903182634 95 251 0.0 2.0 0.00 0.00 0.00 60 1015.7
20260903182134 95 250 0.0 2.0 0.00 0.00 0.00 59 1015.7
20260903181634 95 344 0.0 0.0 0.00 0.00 0.00 60 1015.7
20260903181134 95 352 1.0 2.0 0.00 0.00 0.00 60 1015.8
20260903180634 95 257 2.0 6.0 0.00 0.00 0.00 60 1015.9
20260903180134 95 260 3.0 5.0 0.00 0.00 0.00 59 1016.0
20260903175634 96 247 3.0 5.0 0.00 0.00 0.00 58 1016.0
20260903175134 97 235 2.0 4.0 0.00 0.00 0.00 56 1016.1
20260903174634 97 211 4.0 4.0 0.00 0.00 0.00 55 1016.1
20260903174134 97 250 6.0 10.0 0.00 0.00 0.00 54 1016.1
20260903173634 98 199 4.0 9.0 0.00 0.00 0.00 55 1016.1
20260903173134 98 186 2.0 8.0 0.00 0.00 0.00 54 1016.1
20260903172634 98 136 2.0 6.0 0.00 0.00 0.00 54 1016.3
20260903172134 98 57 3.0 7.0 0.00 0.00 0.00 55 1016.4
20260903171634 98 140 4.0 7.0 0.00 0.00 0.00 55 1016.5
20260903171134 98 171 3.0 9.0 0.00 0.00 0.00 55 1016.5
20260903170634 97 82 2.0 5.0 0.00 0.00 0.00 57 1016.5
20260903170134 97 252 2.0 4.0 0.00 0.00 0.00 56 1016.5
20260903165634 97 68 2.0 5.0 0.00 0.00 0.00 56 1016.6
20260903165134 98 59 2.0 5.0 0.00 0.00 0.00 55 1016.7
20260903164634 98 150 2.0 3.0 0.00 0.00 0.00 56 1016.7
20260903164134 97 244 3.0 6.0 0.00 0.00 0.00 56 1016.8
20260903163634 96 174 3.0 7.0 0.00 0.00 0.00 57 1017.0
20260903163134 96 178 3.0 8.0 0.00 0.00 0.00 58 1017.0
20260903162634 96 161 3.0 8.0 0.00 0.00 0.00 59 1017.1
20260903162134 95 237 3.0 6.0 0.00 0.00 0.00 61 1017.0
20260903161634 95 248 3.0 6.0 0.00 0.00 0.00 60 1017.0
20260903161134 96 238 4.0 5.0 0.00 0.00 0.00 61 1017.0
20260903160634 95 188 4.0 5.0 0.00 0.00 0.00 62 1017.2